Location: Vancouver
(49.2500°N, 123.1330°W)
Time: 03:08:23
(UTC-07:00)

S-56A Canister/Altair - Visible Passes

Search period start: 26 June 2016 00:00
Search period end: 06 July 2016 00:00
Orbit: 639 x 2495 km, 38.9° (Epoch: 21 June)

Date Brightness Start Highest point End Pass type
(mag) Time Alt. Az. Time Alt. Az. Time Alt. Az.
26 Jun 10.0 01:16:49 10° W 01:30:45 54° S 01:44:23 10° ESE visible
26 Jun 10.3 03:22:54 10° W 03:35:43 36° SSW 03:47:07 10° SSE visible
26 Jun 10.0 22:39:43 10° SW 22:51:59 51° SSE 23:06:14 10° E visible
27 Jun 10.0 00:43:56 10° W 00:57:36 55° S 01:11:35 10° ESE visible
27 Jun 10.2 02:49:40 10° W 03:02:47 39° SSW 03:14:49 10° SSE visible
27 Jun 10.0 22:07:17 10° SW 22:18:57 49° SSE 22:33:03 10° E visible
28 Jun 10.0 00:11:10 10° WSW 00:24:27 55° S 00:38:42 10° ESE visible
28 Jun 10.2 02:16:32 10° W 02:29:48 41° SSW 02:42:25 10° SE visible
28 Jun 10.7 04:24:33 10° W 04:33:35 19° SW 04:41:54 10° S visible
28 Jun 10.0 23:38:28 10° WSW 23:51:18 55° S 00:05:44 10° ESE visible
29 Jun 10.1 01:43:32 10° W 01:56:46 44° SSW 02:09:53 10° SE visible
29 Jun 10.6 03:50:50 10° W 04:00:52 22° SW 04:10:15 10° S visible
29 Jun 10.0 23:05:52 10° WSW 23:18:11 55° S 23:32:40 10° ESE visible
30 Jun 10.1 01:10:36 10° W 01:23:42 46° SSW 01:37:14 10° SE visible
30 Jun 10.6 03:17:19 10° W 03:28:06 25° SW 03:38:22 10° S visible
30 Jun 9.9 22:33:21 10° WSW 22:45:07 55° S 22:59:32 10° ESE visible
01 Jul 10.1 00:37:47 10° W 00:50:37 48° SSW 01:04:28 10° SE visible
01 Jul 10.5 02:43:58 10° W 02:55:15 28° SW 03:06:17 10° S visible
01 Jul 9.9 22:00:56 10° WSW 22:12:06 53° S 22:26:19 10° ESE visible
02 Jul 10.1 00:05:03 10° W 00:17:32 49° SSW 00:31:37 10° SE visible
02 Jul 10.5 02:10:47 10° W 02:22:22 30° SW 02:34:03 10° SSE visible
02 Jul 10.0 23:32:24 10° W 23:44:28 50° SSW 23:58:39 10° SE visible
03 Jul 10.4 01:37:43 10° W 01:49:26 33° SW 01:59:10 16° SSE visible
03 Jul 11.0 03:48:35 10° WSW 03:52:56 12° SW 03:56:14 11° SW visible
03 Jul 10.0 22:59:51 10° W 23:11:25 51° S 23:25:36 10° ESE visible
04 Jul 10.4 01:04:47 10° W 01:16:29 35° SSW 01:25:11 20° SSE visible
04 Jul 10.9 03:13:51 10° WSW 03:20:15 14° SW 03:22:25 14° SW visible
04 Jul 10.0 22:27:23 10° WSW 22:38:24 52° S 22:52:28 10° ESE visible
05 Jul 10.3 00:31:58 10° W 00:43:31 37° SSW 00:52:19 21° SSE visible
05 Jul 10.9 02:39:53 10° W 02:47:32 16° SW 02:49:36 16° SW visible
05 Jul 9.9 21:54:59 10° WSW 22:05:27 52° S 22:19:16 10° ESE visible
